KC3UTO Weather Reports


time (UTC)temp
C
wind
direction
speed
KPH
gust
KPH
rain 1hr
cm
rain 24hr
cm
rain mn
cm
humidity
%
barometer
mb
20260510153740 22 351 1.6 8.0 0.00 0.00 0.00 57 1012.5
20260510153237 21 49 0.0 4.8 0.00 0.00 0.00 61 1012.4
20260510152734 21 236 4.8 6.4 0.00 0.00 0.00 59 1012.6
20260510152230 21 301 1.6 3.2 0.00 0.00 0.00 61 1012.5
20260510151726 21 37 4.8 4.8 0.00 0.00 0.00 62 1012.5
20260510151225 21 87 3.2 4.8 0.00 0.00 0.00 65 1012.5
20260510150720 21 237 3.2 6.4 0.00 0.00 0.00 62 1012.4
20260510150216 20 89 0.0 6.4 0.00 0.00 0.00 70 1012.3
20260510145713 20 280 3.2 4.8 0.00 0.00 0.00 72 1012.5
20260510145208 18 237 0.0 6.4 0.00 0.00 0.00 75 1012.3
20260510144705 18 249 1.6 3.2 0.00 0.00 0.00 72 1012.3
20260510144202 18 49 3.2 6.4 0.00 0.00 0.00 76 1012.5
20260510143657 18 88 1.6 4.8 0.00 0.00 0.00 75 1012.5
20260510143154 18 228 3.2 6.4 0.00 0.00 0.00 76 1012.7
20260510142650 17 47 1.6 4.8 0.00 0.00 0.00 81 1012.5
20260510142147 17 239 6.4 6.4 0.00 0.00 0.00 76 1012.6
20260510141643 17 290 0.0 4.8 0.00 0.00 0.00 76 1012.5
20260510141142 17 115 3.2 6.4 0.00 0.00 0.00 80 1012.5
20260510140638 16 36 3.2 4.8 0.00 0.00 0.00 81 1012.5
20260510140137 16 54 3.2 4.8 0.00 0.00 0.00 82 1012.4
20260510135632 16 62 3.2 3.2 0.00 0.00 0.00 83 1012.5
20260510135129 15 180 0.0 4.8 0.00 0.00 0.00 84 1012.5
20260510134626 15 278 0.0 3.2 0.00 0.00 0.00 85 1012.6
20260510134123 15 175 0.0 4.8 0.00 0.00 0.00 84 1012.6
20260510133620 15 92 1.6 3.2 0.00 0.00 0.00 87 1012.4
20260510133115 14 71 3.2 4.8 0.00 0.00 0.00 92 1012.4
20260510132612 13 88 3.2 6.4 0.00 0.00 0.00 94 1012.2
20260510132109 13 17 3.2 4.8 0.00 0.00 0.00 95 1012.3
20260510131606 13 31 0.0 3.2 0.00 0.00 0.00 96 1012.5
20260510131104 12 94 3.2 4.8 0.00 0.00 0.00 97 1012.5
20260510130600 12 43 3.2 3.2 0.00 0.00 0.00 98 1012.7
20260510130058 12 48 0.0 3.2 0.00 0.00 0.00 98 1012.7
20260510125554 12 326 3.2 3.2 0.00 0.00 0.00 98 1012.5
20260510125050 12 58 3.2 3.2 0.00 0.00 0.00 99 1012.5
20260510124547 12 230 1.6 1.6 0.00 0.00 0.00 98 1012.7
20260510124044 12 336 0.0 3.2 0.00 0.00 0.00 99 1012.6
20260510123539 12 354 3.2 3.2 0.00 0.00 0.00 99 1012.4
20260510123035 12 326 1.6 3.2 0.00 0.00 0.00 99 1012.5
20260510122531 12 28 4.8 4.8 0.00 0.00 0.00 99 1012.5
20260510122027 11 69 3.2 4.8 0.00 0.00 0.00 99 1012.4
20260510121525 11 67 0.0 1.6 0.00 0.00 0.00 99 1012.3
20260510121022 11 299 0.0 3.2 0.00 0.00 0.00 99 1012.4
20260510120519 11 63 3.2 3.2 0.00 0.00 0.00 99 1012.5
20260510120015 11 51 0.0 3.2 0.00 0.00 0.00 99 1012.1
20260510115512 11 351 1.6 3.2 0.00 0.00 0.00 99 1012.2
20260510115008 11 24 1.6 3.2 0.00 0.00 0.00 99 1012.0
20260510114505 11 18 1.6 3.2 0.00 0.00 0.00 99 1011.8
20260510114001 11 32 0.0 3.2 0.00 0.00 0.00 99 1011.8
20260510113456 11 12 1.6 3.2 0.00 0.00 0.00 99 1011.6
20260510112954 11 359 1.6 3.2 0.00 0.00 0.00 99 1011.5
20260510112450 11 41 3.2 3.2 0.00 0.00 0.00 99 1011.2
20260510111947 11 30 1.6 3.2 0.00 0.00 0.00 99 1011.1
20260510111443 11 71 3.2 3.2 0.00 0.00 0.00 99 1011.2
20260510110939 11 51 3.2 3.2 0.00 0.00 0.00 99 1011.3
20260510110436 10 27 1.6 3.2 0.00 0.00 0.00 99 1011.3
20260510105931 10 19 1.6 4.8 0.00 0.00 0.00 99 1011.2
20260510105426 10 41 3.2 4.8 0.00 0.00 0.00 99 1011.1
20260510104922 10 33 1.6 3.2 0.00 0.00 0.00 99 1011.5
20260510104419 10 45 3.2 4.8 0.00 0.00 0.00 99 1011.2
20260510103916 10 32 0.0 3.2 0.00 0.00 0.00 99 1011.2
20260510103414 10 77 3.2 4.8 0.00 0.00 0.00 99 1011.1
20260510102908 10 73 3.2 3.2 0.00 0.00 0.00 99 1011.3
20260510102404 10 42 3.2 3.2 0.00 0.00 0.00 99 1011.3
20260510101902 10 21 3.2 3.2 0.00 0.00 0.00 99 1011.4
20260510101400 10 32 3.2 3.2 0.00 0.00 0.00 99 1011.4
20260510100856 10 42 3.2 3.2 0.00 0.00 0.00 99 1011.1
20260510100354 10 41 4.8 4.8 0.00 0.00 0.00 99 1011.3
20260510095849 10 30 4.8 4.8 0.00 0.00 0.00 99 1011.1
20260510095344 10 22 3.2 4.8 0.00 0.00 0.00 99 1010.9
20260510094844 10 30 3.2 3.2 0.00 0.00 0.00 99 1010.8
20260510094340 10 73 3.2 4.8 0.00 0.00 0.00 99 1010.9
20260510093836 10 29 0.0 1.6 0.00 0.00 0.00 99 1011.0
20260510093332 10 39 0.0 3.2 0.00 0.00 0.00 99 1010.8
20260510092828 10 41 3.2 3.2 0.00 0.00 0.00 99 1010.5
20260510092324 10 48 3.2 4.8 0.00 0.00 0.00 99 1010.7
20260510091820 10 24 3.2 3.2 0.00 0.00 0.00 99 1010.6
20260510091318 10 52 3.2 3.2 0.00 0.00 0.00 99 1010.7
20260510090814 10 33 3.2 3.2 0.00 0.00 0.00 99 1010.6
20260510090311 10 20 3.2 3.2 0.00 0.00 0.00 99 1010.8
20260510085806 11 38 3.2 3.2 0.00 0.00 0.00 99 1010.9
20260510085301 11 30 1.6 3.2 0.00 0.00 0.00 99 1010.7
20260510084757 11 54 3.2 3.2 0.00 0.00 0.00 99 1010.7
20260510084254 11 49 3.2 3.2 0.00 0.00 0.00 99 1010.6
20260510083751 11 27 1.6 3.2 0.00 0.00 0.00 99 1010.7
20260510083248 11 47 3.2 3.2 0.00 0.00 0.00 99 1010.9
20260510082743 10 56 3.2 3.2 0.00 0.00 0.00 99 1010.9
20260510082240 10 64 1.6 3.2 0.00 0.00 0.00 99 1010.9
20260510081739 10 34 3.2 3.2 0.00 0.00 0.00 99 1011.0
20260510081235 10 30 3.2 6.4 0.00 0.00 0.00 99 1010.9
20260510080731 10 74 3.2 3.2 0.00 0.00 0.00 99 1010.9
20260510080227 10 57 3.2 4.8 0.00 0.00 0.00 99 1010.8
20260510075723 10 34 4.8 6.4 0.00 0.00 0.00 99 1010.8
20260510075221 10 59 4.8 4.8 0.00 0.00 0.00 99 1010.9
20260510074718 10 28 4.8 4.8 0.00 0.00 0.00 99 1010.7
20260510074214 10 359 4.8 6.4 0.00 0.00 0.00 99 1010.9
20260510073711 10 353 0.0 4.8 0.00 0.00 0.00 99 1010.8
20260510073206 10 2 3.2 6.4 0.00 0.00 0.00 99 1010.9
20260510072703 9 2 6.4 9.7 0.00 0.00 0.00 99 1010.7
20260510072159 9 346 3.2 3.2 0.00 0.00 0.00 99 1010.4
20260510071656 9 23 0.0 3.2 0.00 0.00 0.00 98 1010.1
20260510071153 9 34 3.2 3.2 0.00 0.00 0.00 98 1010.3
20260510070650 9 40 0.0 1.6 0.00 0.00 0.00 98 1010.2
20260510070148 9 59 3.2 3.2 0.00 0.00 0.00 98 1010.1
20260510065643 10 37 3.2 3.2 0.00 0.00 0.00 98 1010.3
20260510065139 10 60 3.2 3.2 0.00 0.00 0.00 98 1010.2
20260510064636 10 50 3.2 3.2 0.00 0.00 0.00 98 1010.4
20260510064133 10 86 3.2 4.8 0.00 0.00 0.00 98 1010.1
20260510063630 10 47 3.2 3.2 0.00 0.00 0.00 98 1010.1
20260510063127 10 74 3.2 4.8 0.00 0.00 0.00 98 1010.0
20260510062622 10 72 3.2 4.8 0.00 0.00 0.00 98 1010.5
20260510062118 10 46 6.4 6.4 0.00 0.00 0.00 98 1010.5
20260510061614 10 57 3.2 4.8 0.00 0.00 0.00 98 1010.6
20260510061112 10 9 4.8 4.8 0.00 0.00 0.00 98 1010.5
20260510060608 9 15 4.8 4.8 0.00 0.00 0.00 98 1010.3
20260510060104 9 20 3.2 4.8 0.00 0.00 0.00 98 1010.5
20260510055600 9 24 3.2 4.8 0.00 0.00 0.00 98 1010.1
20260510055059 9 38 3.2 3.2 0.00 0.00 0.00 98 1010.2
20260510054554 9 33 3.2 4.8 0.00 0.00 0.00 98 1010.0
20260510054049 9 45 3.2 3.2 0.00 0.00 0.00 98 1010.0
20260510053549 9 41 3.2 3.2 0.00 0.00 0.00 98 1010.0
20260510053047 9 40 3.2 4.8 0.00 0.00 0.00 98 1010.2
20260510052542 9 49 3.2 3.2 0.00 0.00 0.00 98 1010.3
20260510052039 9 55 3.2 3.2 0.00 0.00 0.00 98 1010.2
20260510051534 9 7 3.2 3.2 0.00 0.00 0.00 98 1010.2
20260510051031 9 39 3.2 3.2 0.00 0.00 0.00 98 1010.2
20260510050528 9 26 1.6 3.2 0.00 0.00 0.00 98 1010.3
20260510050026 8 21 3.2 4.8 0.00 0.00 0.00 98 1010.2
20260510045523 8 56 3.2 4.8 0.00 0.00 0.00 98 1010.2
20260510045018 8 17 1.6 3.2 0.00 0.00 0.00 98 1010.3
20260510044515 8 50 3.2 3.2 0.00 0.00 0.00 97 1010.4
20260510044013 8 48 1.6 3.2 0.00 0.00 0.00 97 1010.4
20260510043513 8 34 3.2 3.2 0.00 0.00 0.00 97 1010.4
20260510043009 8 54 3.2 3.2 0.00 0.00 0.00 97 1010.4
20260510042503 8 31 3.2 3.2 0.00 0.00 0.00 97 1010.4
20260510041958 8 49 3.2 3.2 0.00 0.00 0.00 97 1010.4
20260510041456 8 28 3.2 3.2 0.00 0.00 0.00 97 1010.3
20260510040954 8 53 3.2 3.2 0.00 0.00 0.00 97 1010.5
20260510040450 9 32 0.0 3.2 0.00 0.00 0.00 97 1010.6
20260510035946 9 60 3.2 3.2 0.00 0.28 0.28 97 1010.3
20260510035443 9 63 3.2 3.2 0.00 0.28 0.28 97 1010.5
20260510034942 9 49 3.2 3.2 0.00 0.28 0.28 97 1010.4
20260510034441 9 47 3.2 3.2 0.00 0.28 0.28 97 1010.3
20260510033937 9 56 3.2 4.8 0.00 0.28 0.28 97 1010.3
20260510033433 10 21 3.2 3.2 0.00 0.28 0.28 97 1010.6
20260510032931 10 29 1.6 3.2 0.00 0.28 0.28 97 1010.3
20260510032428 10 30 1.6 3.2 0.00 0.28 0.28 97 1010.4
20260510031928 10 31 3.2 3.2 0.00 0.28 0.28 97 1010.3
20260510031423 10 49 3.2 4.8 0.00 0.28 0.28 96 1010.1
20260510030919 10 60 3.2 3.2 0.00 0.28 0.28 96 1010.3
20260510030415 10 32 3.2 3.2 0.00 0.28 0.28 96 1010.1
20260510025913 10 27 3.2 4.8 0.00 0.28 0.28 96 1010.0
20260510025410 10 43 3.2 4.8 0.00 0.28 0.28 96 1010.0
20260510024907 10 42 3.2 3.2 0.00 0.28 0.28 96 1010.2
20260510024403 10 35 3.2 3.2 0.00 0.28 0.28 96 1010.2
20260510023859 10 19 0.0 3.2 0.00 0.28 0.28 96 1010.3
20260510023356 10 32 3.2 4.8 0.00 0.28 0.28 96 1010.2
20260510022854 10 45 3.2 4.8 0.00 0.28 0.28 96 1010.0
20260510022353 11 33 1.6 3.2 0.00 0.28 0.28 96 1010.0
20260510021851 11 25 3.2 4.8 0.00 0.28 0.28 96 1010.0
20260510021350 11 55 3.2 3.2 0.00 0.28 0.28 95 1010.0
20260510020846 11 24 3.2 3.2 0.00 0.28 0.28 95 1010.2
20260510020346 11 37 1.6 3.2 0.00 0.28 0.28 95 1009.9
20260510015842 11 52 3.2 3.2 0.00 0.28 0.28 95 1009.8
20260510015338 11 40 4.8 4.8 0.00 0.28 0.28 95 1009.8
20260510014833 11 34 3.2 3.2 0.00 0.28 0.28 95 1010.1
20260510014331 11 57 3.2 3.2 0.00 0.28 0.28 94 1009.7
20260510013827 11 31 3.2 4.8 0.00 0.28 0.28 94 1010.0
20260510013323 11 26 1.6 3.2 0.00 0.28 0.28 94 1009.8
20260510012818 12 34 1.6 3.2 0.00 0.28 0.28 94 1009.8
20260510012317 12 36 3.2 3.2 0.00 0.28 0.28 94 1009.7
20260510011812 12 40 3.2 4.8 0.00 0.28 0.28 94 1009.7
20260510011308 12 48 3.2 3.2 0.00 0.28 0.28 93 1009.7
20260510010805 12 49 3.2 3.2 0.00 0.28 0.28 93 1009.8
20260510010302 12 55 3.2 3.2 0.00 0.28 0.28 93 1009.8
20260510005759 12 32 0.0 3.2 0.00 0.28 0.28 93 1009.7
20260510005255 12 55 3.2 3.2 0.00 0.28 0.28 93 1009.4
20260510004753 12 38 3.2 3.2 0.00 0.28 0.28 92 1009.5
20260510004250 12 48 3.2 3.2 0.00 0.28 0.28 92 1009.2
20260510003747 12 54 3.2 3.2 0.00 0.28 0.28 91 1009.5
20260510003244 12 48 3.2 3.2 0.00 0.28 0.28 91 1009.3
20260510002742 12 34 3.2 3.2 0.00 0.28 0.28 90 1009.3
20260510002240 12 34 1.6 3.2 0.00 0.28 0.28 90 1009.2
20260510001736 13 40 3.2 3.2 0.00 0.28 0.28 89 1009.0
20260510001236 13 36 3.2 3.2 0.00 0.28 0.28 88 1008.9
20260510000731 13 42 3.2 3.2 0.00 0.28 0.28 88 1009.0
20260510000228 13 49 3.2 3.2 0.00 0.28 0.28 88 1008.9
20260509235725 13 43 1.6 3.2 0.00 0.28 0.28 87 1009.1
20260509235222 13 51 3.2 3.2 0.00 0.28 0.28 86 1009.0
20260509234717 14 38 1.6 3.2 0.00 0.28 0.28 85 1009.1
20260509234215 14 11 0.0 3.2 0.00 0.28 0.28 85 1009.1
20260509233713 15 67 3.2 3.2 0.00 0.28 0.28 84 1009.1
20260509233210 15 56 3.2 3.2 0.00 0.28 0.28 83 1009.0
20260509232706 15 58 3.2 4.8 0.00 0.28 0.28 84 1009.3
20260509232203 15 44 1.6 3.2 0.00 0.28 0.28 84 1009.1
20260509231700 15 55 3.2 3.2 0.00 0.28 0.28 84 1009.0
20260509231157 15 12 1.6 3.2 0.00 0.28 0.28 83 1009.0
20260509230654 15 62 3.2 4.8 0.00 0.28 0.28 82 1009.0
20260509230151 15 54 3.2 3.2 0.00 0.28 0.28 82 1009.0
20260509225647 15 45 3.2 3.2 0.00 0.28 0.28 81 1008.9
20260509225143 15 39 1.6 4.8 0.00 0.28 0.28 81 1008.8
20260509224638 15 89 3.2 3.2 0.00 0.28 0.28 80 1008.8
20260509224135 15 29 3.2 3.2 0.00 0.28 0.28 79 1008.8
20260509223632 15 38 0.0 4.8 0.00 0.28 0.28 77 1008.9
20260509223130 15 46 3.2 3.2 0.00 0.28 0.28 76 1008.8
20260509222626 15 39 4.8 4.8 0.00 0.28 0.28 76 1009.2
20260509222121 15 52 3.2 3.2 0.00 0.28 0.28 77 1009.0
20260509221618 15 103 3.2 4.8 0.00 0.28 0.28 77 1008.9
20260509221114 15 84 4.8 6.4 0.00 0.28 0.28 77 1009.1
20260509220609 15 11 3.2 6.4 0.00 0.28 0.28 77 1009.0
20260509220106 15 28 3.2 6.4 0.00 0.28 0.28 78 1009.0
20260509215602 15 46 4.8 6.4 0.00 0.28 0.28 78 1009.0
20260509215059 15 40 3.2 4.8 0.00 0.28 0.28 77 1009.0
20260509214556 15 92 4.8 4.8 0.00 0.28 0.28 77 1008.9
20260509214053 15 30 4.8 6.4 0.00 0.28 0.28 79 1008.7
20260509213549 15 86 3.2 4.8 0.00 0.28 0.28 79 1008.8
20260509213046 15 40 3.2 3.2 0.00 0.28 0.28 80 1008.7
20260509212543 15 32 3.2 3.2 0.00 0.28 0.28 79 1008.8
20260509212040 15 49 4.8 4.8 0.00 0.28 0.28 78 1008.8
20260509211535 15 15 3.2 4.8 0.00 0.28 0.28 77 1009.0
20260509211033 15 299 1.6 6.4 0.00 0.28 0.28 77 1009.0
20260509210529 15 348 3.2 3.2 0.00 0.28 0.28 78 1009.2
20260509210026 15 40 1.6 4.8 0.00 0.28 0.28 79 1009.2
20260509205520 15 353 4.8 8.0 0.00 0.28 0.28 78 1009.3
20260509205016 15 335 0.0 3.2 0.00 0.28 0.28 78 1009.4
20260509204513 15 328 3.2 3.2 0.00 0.28 0.28 80 1009.4
20260509204009 15 3 3.2 3.2 0.00 0.28 0.28 80 1009.3
20260509203505 15 20 4.8 4.8 0.00 0.28 0.28 80 1009.1
20260509203003 15 9 0.0 3.2 0.00 0.28 0.28 79 1009.5
20260509202458 15 63 3.2 4.8 0.00 0.28 0.28 82 1009.4
20260509201953 15 43 0.0 3.2 0.00 0.28 0.28 81 1009.4
20260509201454 15 71 0.0 3.2 0.00 0.28 0.28 83 1009.2
20260509200951 14 75 0.0 3.2 0.00 0.28 0.28 83 1009.4
20260509200446 13 350 0.0 1.6 0.00 0.28 0.28 83 1009.4
20260509195943 13 32 0.0 1.6 0.00 0.28 0.28 83 1009.6
20260509195439 13 322 1.6 1.6 0.05 0.28 0.28 84 1009.6
20260509194938 13 52 3.2 3.2 0.05 0.28 0.28 83 1009.5
20260509194434 13 30 1.6 1.6 0.00 0.25 0.25 84 1009.7
20260509193931 13 53 3.2 3.2 0.00 0.25 0.25 86 1009.6
20260509193430 13 25 0.0 3.2 0.00 0.25 0.25 85 1009.8
20260509192927 13 57 3.2 3.2 0.00 0.25 0.25 86 1009.8
20260509192423 13 40 1.6 4.8 0.00 0.25 0.25 89 1009.9
20260509191918 13 9 1.6 3.2 0.00 0.25 0.25 90 1010.2
20260509191414 13 36 3.2 3.2 0.00 0.25 0.25 90 1010.2
20260509190910 13 78 3.2 4.8 0.00 0.25 0.25 91 1010.5
20260509190408 13 59 3.2 3.2 0.05 0.25 0.25 90 1010.3
20260509185905 13 65 1.6 3.2 0.05 0.25 0.25 90 1010.6
20260509185402 13 38 3.2 3.2 0.13 0.25 0.25 91 1010.6
20260509184859 13 40 0.0 3.2 0.18 0.25 0.25 91 1010.8
20260509184355 13 65 3.2 3.2 0.13 0.23 0.23 90 1010.8
20260509183853 13 329 0.0 3.2 0.05 0.23 0.23 90 1010.7
20260509183347 13 8 1.6 3.2 0.05 0.20 0.20 89 1010.8
20260509182843 13 5 0.0 4.8 0.05 0.20 0.20 89 1010.9
20260509182341 13 44 0.0 3.2 0.05 0.20 0.20 88 1010.9
20260509181838 13 57 0.0 3.2 0.05 0.18 0.18 88 1010.9
20260509181335 13 24 3.2 3.2 0.13 0.18 0.18 88 1010.8
20260509180833 13 21 0.0 3.2 0.18 0.18 0.18 87 1010.9
20260509180328 13 340 3.2 3.2 0.13 0.15 0.15 86 1011.0
20260509175826 13 30 3.2 4.8 0.18 0.15 0.15 86 1010.7
20260509175322 13 332 3.2 3.2 0.13 0.13 0.13 85 1010.8
20260509174818 13 234 3.2 6.4 0.13 0.13 0.13 85 1011.0
20260509174313 14 21 0.0 1.6 0.05 0.10 0.10 85 1010.9
20260509173810 14 25 1.6 3.2 0.00 0.10 0.10 83 1010.9
20260509173305 14 12 1.6 3.2 0.00 0.10 0.10 84 1010.7
20260509172801 14 26 0.0 3.2 0.00 0.10 0.10 85 1010.9
20260509172259 14 18 1.6 3.2 0.00 0.10 0.10 83 1010.7
20260509171754 14 30 1.6 4.8 0.00 0.10 0.10 83 1010.7
20260509171250 14 13 1.6 3.2 0.00 0.10 0.10 83 1010.8
20260509170747 14 40 3.2 3.2 0.05 0.10 0.10 85 1010.3
20260509170243 13 70 3.2 3.2 0.13 0.10 0.10 84 1010.3
20260509165742 13 52 3.2 4.8 0.13 0.10 0.10 83 1010.5
20260509165237 14 57 3.2 4.8 0.18 0.08 0.08 83 1010.5
20260509164733 14 359 1.6 3.2 0.05 0.05 0.05 83 1010.7
20260509164229 14 355 0.0 3.2 0.05 0.05 0.05 82 1010.6
20260509163726 14 22 0.0 3.2 0.05 0.05 0.05 84 1010.5
20260509163223 14 322 0.0 3.2 0.05 0.05 0.05 83 1010.5
20260509162721 14 38 3.2 4.8 0.13 0.05 0.05 83 1010.7
20260509162216 15 316 3.2 6.4 0.13 0.03 0.03 84 1010.9
20260509161711 15 314 3.2 4.8 0.05 0.03 0.03 82 1011.0
20260509161208 14 337 1.6 3.2 0.05 0.00 0.00 81 1011.1
20260509160703 15 235 3.2 6.4 0.05 0.00 0.00 78 1011.1
20260509160159 15 313 4.8 4.8 0.00 0.00 0.00 79 1011.1
20260509155655 15 215 4.8 6.4 0.00 0.00 0.00 79 1011.1
20260509155151 15 306 1.6 4.8 0.00 0.00 0.00 79 1011.2
20260509154647 15 333 0.0 3.2 0.00 0.00 0.00 79 1011.3
20260509154145 15 224 4.8 6.4 0.00 0.00 0.00 79 1011.3